Location: Hastringsfeld
(50.9620°N, 10.4787°E)
Time: 17:05:51
(UTC+00:00)

NOSS 2-3 (D) - Pass Details

Date: 26 September 2023
Orbit: 504 x 1697 km, 63.3° (Epoch: 06 December)

Event Time Altitude Azimuth Distance (km) Brightness Sun altitude
Exits shadow 02:25:53 27° 308° (NW) 1,649 5.5 -25.3°
Maximum altitude 02:29:15 72° 230° (SW) 1,068 4.4 -24.9°
Drops below altitude 10° 02:36:57 10° 148° (SSE) 3,270 7.2 -23.8°
Sets 02:40:11 0° 147° (SSE) 4,416 8.0 -23.4°
